Location: Devils Tower National Monument
(44.5904°N, 104.7201°W)
Time: 17:20:39
(UTC-07:00)

Envisat - Pass Details

Date: 03 February 2020
Orbit: 764 x 766 km, 98.1° (Epoch: 24 February)

Event Time Altitude Azimuth Distance (km) Brightness Sun altitude
Rises 18:13:51 0° 182° (S) 3,216 6.4 -11.7°
Reaches altitude 10° 18:16:14 10° 188° (S) 2,294 5.7 -12.1°
Maximum altitude 18:21:05 46° 261° (W) 1,026 4.2 -12.9°
Drops below altitude 10° 18:25:58 10° 335° (NNW) 2,310 5.7 -13.8°
Sets 18:28:23 0° 341° (NNW) 3,240 6.4 -14.2°
